Regional Weather Roundup
Issued by NWS Albany, NY

Home | Current Version | Previous Version | Text Only | Print | Product List | Glossary On
Versions: 1 2 3 4 5 6 7 8 9 10 11 12 13 14 15 16 17 18 19 20 21 22 23 24 25 26 27 28 29 30 31 32 33 34 35 36 37 38 39 40 41 42 43 44 45 46 47 48
000
ASUS41 KALY 181410
RWRALY

NEW YORK STATE HOURLY WEATHER ROUNDUP
NATIONAL WEATHER SERVICE ALBANY NY
1000 AM EDT THU SEP 18 2014

NOTE: "FAIR" INDICATES FEW OR NO CLOUDS BELOW 12,000 FEET WITH NO
SIGNIFICANT WEATHER AND/OR NO OBSTRUCTIONS TO VISIBILITY.

NYZ032-033-038>043-046>054-057>066-NYZ062>081-181500-
EAST


CITY           SKY/WX    TMP DP  RH WIND       PRES   REMARKS
ALBANY         MOSUNNY   57  49  74 S5        30.03R
GLENS FALLS    CLOUDY    54  48  80 S5        30.02R
POUGHKEEPSIE   SUNNY     56  51  84 CALM      30.02S
NEWBURGH       MOSUNNY   57  52  82 CALM      30.04R
MONTGOMERY     MOSUNNY   58  50  75 CALM      30.02S
WHITE PLAINS   MOSUNNY   67  46  47 NW7       30.01R
ISLIP          MOSUNNY   69  53  56 NW8       29.99S
NEW YORK CITY  MOSUNNY   65  49  56 CALM      30.00S
CENTRAL PARK   SUNNY     65  46  50 VRB3      30.04R
$$

NYZ005>009-017-018-044>046-055-056-181500-
CENTRAL


CITY           SKY/WX    TMP DP  RH WIND       PRES   REMARKS
FULTON         CLOUDY    55  50  83 N12       30.06R
SYRACUSE       CLOUDY    60  53  77 NW9       30.04R
ROME           CLOUDY    54  48  80 CALM      30.06R
ELMIRA         MOSUNNY   54  51  90 SW3       30.05S
BINGHAMTON     PTSUNNY   55  48  77 W5        30.05R
MONTICELLO     SUNNY     57  48  72 MISG      30.05R
$$

NYZ026>034-041>043-181500-
NORTH


CITY           SKY/WX    TMP DP  RH WIND       PRES   REMARKS
WATERTOWN      CLOUDY    49  42  77 N12       30.10R
FORT DRUM      NOT AVBL
MASSENA        PTSUNNY   48  40  73 N6        30.12R
SARANAC LAKE   CLOUDY    45  43  93 VRB5      30.03R
PLATTSBURGH    CLOUDY    47  44  90 N13       30.07R
$$

NYZ001>004-010>016-019>021-181500-
WEST


CITY           SKY/WX    TMP DP  RH WIND       PRES   REMARKS
NIAGARA FALLS  CLOUDY    56  52  86 N13       30.08R
BUFFALO        PTSUNNY   58  51  78 N9        30.07R
DUNKIRK        SUNNY     62  50  64 VRB5      30.08R
JAMESTOWN      MOSUNNY   52  48  87 NE3       30.09R
WELLSVILLE     SUNNY     55  50  83 W6        30.09R
ROCHESTER      PTSUNNY   60  54  80 NW3       30.07R
PENN YAN       MOSUNNY   60  50  69 VRB7      30.06R
$$

             KEY
       WCI = WIND CHILL INDEX
       VSB = VISIBILITY
       HX  = HEAT INDEX
$$


USA.gov is the U.S. government's official web portal to all federal, state and local government web resources and services.